Terug naar catalogus

COSMOS 1275 DEB

LostPO
NORAD 42123·DEBRIS·🇷🇺 Russia

Gelanceerd Jun 4, 1981 vanaf Plesetsk Cosmodrome

Loading…

Volgende Passages (komende 24 uur)

TLE

VerouderdSource: Space-Track

Epoch: Dec 21, 2023, 18:27 UTC

1 42123U 81053QK  23355.76918821  .00002114  00000-0  16959-2 0  9999
2 42123  82.9408 164.4162 0065799  50.8769 309.8219 13.89231584509976

Volg COSMOS 1275 DEB in realtime met AllMySat

Download on the App Store